Location: Newark
(52.5667°N, 8.8000°W)
Time: 20:48:55
(UTC+00:00)

N. Korean satellite - Pass Details

Date: 25 January 2020
Orbit: 456 x 505 km, 97.2° (Epoch: 22 February)

Event Time Altitude Azimuth Distance (km) Brightness Sun altitude
Rises 05:41:20 0° 24° (NNE) 2,534 10.5 -25.0°
Reaches altitude 10° 05:43:43 10° 40° (NE) 1,659 9.7 -24.7°
Maximum altitude 05:46:34 22° 93° (E) 1,093 9.1 -24.2°
Drops below altitude 10° 05:49:27 10° 147° (SSE) 1,670 9.7 -23.8°
Sets 05:51:51 0° 162° (SSE) 2,555 10.5 -23.4°
